Date,TemperatureHighF,TemperatureAvgF,TemperatureLowF,DewpointHighF,DewpointAvgF,DewpointLowF,HumidityHigh,HumidityAvg,HumidityLow,PressureMaxIn,PressureMinIn,WindSpeedMaxMPH,WindSpeedAvgMPH,GustSpeedMaxMPH,PrecipitationSumIn
2013-3-1,57,51,49,51,48,46,96,89,79,30.34,30.25,24,4,24,0.01
2013-3-2,54,47,38,48,44,36,95,89,74,30.26,30.06,16,3,16,0.04
2013-3-3,47,38,32,38,35,31,97,87,64,30.32,30.20,10,1,10,0.02
2013-3-4,52,40,32,37,33,30,96,79,48,30.32,29.95,10,1,10,0.00
2013-3-5,48,41,37,39,36,30,96,83,66,29.95,29.74,10,1,10,0.12
2013-3-6,42,40,39,40,39,38,97,95,92,29.90,29.60,12,1,12,0.32
2013-3-7,50,43,39,43,40,38,97,92,73,30.11,29.90,8,0,8,0.06
2013-3-8,51,42,36,41,38,34,97,86,64,30.26,30.09,9,1,9,0.00
2013-3-9,54,41,32,42,37,30,97,87,60,30.51,30.25,9,1,9,0.00
2013-3-10,45,41,36,42,39,35,96,92,79,30.51,30.44,7,0,7,0.00
2013-3-11,48,44,41,44,41,39,97,90,75,30.46,30.14,8,1,8,0.02
2013-3-12,53,50,45,50,47,44,97,91,84,30.14,30.03,17,4,17,0.00
2013-3-13,52,50,48,48,47,46,93,90,85,30.17,30.08,19,3,19,0.00
2013-3-14,54,49,46,47,45,42,96,85,65,30.13,30.02,20,3,20,0.01
2013-3-15,59,51,46,49,46,44,96,85,68,30.20,30.12,12,2,12,0.00
2013-3-16,51,46,38,44,42,36,94,86,60,30.13,29.87,16,2,16,0.00
2013-3-23,48,38,32,35,32,28,95,78,50,30.41,30.32,4,1,10,0.00
2013-3-24,54,42,32,35,31,25,94,70,33,30.32,30.14,4,1,8,0.00
2013-3-25,62,47,37,36,31,27,85,57,32,30.14,29.95,3,1,9,0.00
2013-3-26,58,48,43,41,37,32,81,66,48,30.03,29.97,3,1,8,0.00
2013-3-27,56,48,43,48,42,36,92,79,55,30.00,29.95,2,1,10,0.01
2013-3-28,63,49,43,49,45,41,96,87,59,30.16,30.00,3,1,8,0.19
2013-3-29,64,51,43,48,44,41,96,81,51,30.26,30.16,4,1,10,0.00
2013-3-30,64,52,39,48,43,38,97,74,49,30.27,30.09,14,2,14,0.00
2013-3-31,68,55,46,45,42,39,81,62,38,30.09,29.92,12,2,12,0.00